ESSA 6 (TOS-D)

Satellite information

Favourite Embed

Satellite Type and Status

PAYLOADIN ORBIT

Key statistics

Satellite ESSA 6 (TOS-D) at a glance.

Uptime

21225

Days in orbit

Revolutions

≈ 12.5

Per day

Orbit

SSO

Sun Synchronous Orbit

Inclination

102.0

Latest

Satellite identification and parameters

Extended collection of information and parameters for ESSA 6 (TOS-D).

Object identification

Identified? True

Debris? False

Object name: ESSA 6 (TOS-D)

International designator: 1967-114A

Object number (NORAD): 3035

Object ID (CCSDS): 3035

Country: UNITED STATES OF AMERICA (US)

Current information (Y/N): Y

RCS size: MEDIUM

Orbital parameters

Period: 114.81 minutes

Inclination: 102.0124 deg

SMA: 7824.919 km

Apoapsis: 1485.144 km

Periapsis: 1408.423 km

RAAN: 91.5082 deg

Eccentricy: 0.00490236

Argument of periapsis: 105.8782 deg

Mean anomaly: 8.0979 deg

Mean motion: 12.54246825 rev/day

Mean motion (dot): -0.00000046 rev/day2

B* drag term: 0.000000566877 1/REarth

Two-line elements (TLE)

Creation date: Dec. 20, 2025, 3:40 a.m.

Reference frame: TEME

Reference center: EARTH

Epoch: Dec. 19, 2025, 9:48 p.m. UTC

TLE line 0: 0 ESSA 6 (TOS-D)

TLE line 1: 1 03035U 67114A 25353.90834946 -.00000046 00000-0 56688-6 0 9991

TLE line 2: 2 03035 102.0124 91.5082 0049024 105.8782 8.0979 12.54246825660136

Live tracking on map

Real-time ground track for satellite ESSA 6 (TOS-D).

In-orbit conjunctions

There are no conjunctions computed for ESSA 6 (TOS-D), at the moment. Check back to stay up to date, as we update our databases every day.

Go to all conjunctions

Associated space launch

The ESSA series was the second generation of US meterological satellites after the TIROS (Television & Infra-Red Observation Satellite) series. They were also called OT (Operational TIROS), TOS (TIROS Operational Satellite).

ESSA 6 (TOS-D) was lifted into orbit during the mission ‘Thor Delta E1 | ESSA 6’, on board a Thor Delta E1 space rocket.

The launch took place on Nov. 10, 1967, 5:53 p.m. from Space Launch Complex 2E.

For more information about the launch, click the button.

Launch to space Thor Delta E1 | ESSA 6
Thor Delta E1 | ESSA 6

Agency: N/A

Status: Launch Successful

Launch date: Nov. 10, 1967, 5:53 p.m. UTC

Rocket: Thor Delta E1

Launch pad: Space Launch Complex 2E

Location: Vandenberg SFB, CA, USA

...

Latest news about this satellite

There are no fresh news available about this satellite. Check back as we update our databases every day.


Newsletter sign-up

Weekly statistics, charts and insights to help you stay on top of the space industry.